Volver al catálogo

ARIANE 2 DEB

LostGTO
NORAD 42489·DEBRIS·🇫🇷 France

Lanzado Jan 27, 1989 desde Guiana Space Centre

Loading…

TLE

ObsoletoSource: Space-Track

Época: Aug 15, 2024, 11:04 UTC

1 42489U 89006CR  24228.46125038 -.00000097  00000-0  00000+0 0  9993
2 42489   9.8006  51.3859 6820659 144.5476  85.0904  2.19970790170952

Sigue ARIANE 2 DEB en tiempo real con AllMySat

Download on the App Store